星链-34975 (STARLINK-34975)

导读

STARLINK-34975是美国太空探索技术公司(SpaceX)星链星座的成员卫星,于2025年8月14日发射升空。星链项目旨在构建全球卫星互联网星座,为全球偏远地区、恶劣环境区域提供高速宽带互联网接入服务,该卫星入轨后将和其他星链卫星组网,进一步完善全球卫星互联网的覆盖与服务能力,支撑星座通信服务的稳定运行。

基本信息
目录编号:
65224
目录名称:
STARLINK-34975
国际标识:
2025-176AC
轨道中心:
EARTH
卫星名称:
星链-34975
卫星全名:
星链-34975 (STARLINK-34975)
卫星状态:
在轨 (已飞行386 天)
发射日期:
2025-08-14 UTC
国别 :
美国 (US)
星等 :
--
轨道信息
数据来源 国际轨道数据
星历时间: 2026-09-03T18:20:22+0800
20小时前
查看轨道信息
半长轴: 6840.868km
偏心率: 0.0001405
轨道倾角: 53.160°
近地点辐角 88.301°
升交点赤经 43.572°
平近点角 271.815°
近地点: 461.769km
远地点: 463.693km
周期: 93.848分钟
每日圈数: 15.343909
详细信息
固有亮度:
5
最大亮度:
2.5
卫星平台:
Starlink V1.0
覆盖范围:
全球
运营商:
太空探索技术公司
运营商所在国:
美国
制造商(研发单位):
太空探索技术公司
制造商所在国:
美国
使用方式:
暂无
卫星简介
Starlink 计划是 SpaceX 推出的全球卫星互联网项目,通过发射低轨道卫星,为全球尤其是偏远地区提供高速、低延迟的互联网服务。自 2019 年起,Starlink 已部署数千颗卫星,旨在缩小全球数字鸿沟,推动互联网普及。该项目还为军事、航空等行业提供通信支持,带来广泛经济效益。
2D轨道图
3D轨道图
轨道高度分析图
轨道倾角分析图
轨道综合分析图
查看轨道综合分析图
交会数据列表
事件ID 空间交会对象 最接近时刻(TCA) 交会距离 交会风险概率(CRP) 交会风险指数(CRI) 操作
CDM_260901-120705-378906-522421
2026-09-01T
12:07:01+0000
1.194 km
极远距离
1.24924E-5 中风险 0.57
CDM_260904-153704-002406-522421
2026-09-04T
15:37:24+0000
2.591 km
极远距离
1.500112E-6 低风险 0.39
CDM_260903-193705-146106-522421
2026-09-03T
19:37:09+0000
2.715 km
极远距离
1.346304E-6 低风险 0.38
CDM_260903-211105-262006-522421
2026-09-03T
21:11:01+0000
2.837 km
极远距离
1.266025E-6 低风险 0.37
CDM_260904-034805-247606-522421
2026-09-04T
03:48:33+0000
2.736 km
极远距离
1.049137E-6 低风险 0.35